Date String (YYYY-MM-DD hh:mm:ss) UTC,Instrument flags,Ambient pressure (hPa),Sample flow (lpm),Bypass flow (lpm),Sample temperature (°C),Ambient temperature (°C),ASC tube jacket temperature (°C),LED temperature (°C),Box temperature (°C),Sample RH (%),Span deviation,Mass concentration (μg/m³),Mass concentration (μg/m³),Mass concentration (μg/m³)
DateTimeUTC,F1_M11,P_M11,Q1_M11,Q2_M11,T1_M11,T2_M11,T3_M11,T4_M11,T5_M11,U1_M11,ZSPAN_M11,X0_M11,X2_M11,X1_M11
2021-12-09 17:00:00,,0816.7,5.00,0.00,23.3,22.7,00.0,32.3,25.1,15.1,0000.0,0012.00,0003.10,0001.58
2021-12-09 17:01:00,,0817.0,5.00,0.00,23.4,22.7,00.0,32.3,25.1,15.1,0000.0,0011.48,0003.15,0001.58
2021-12-09 17:02:00,,0817.1,5.00,0.00,23.4,22.7,00.0,32.3,25.1,15.2,0000.0,0011.00,0003.18,0001.58
2021-12-09 17:03:00,,0816.9,5.01,0.00,23.4,22.8,00.0,32.3,25.1,15.1,0000.0,0010.84,0003.17,0001.57
2021-12-09 17:04:00,,0816.6,5.00,0.00,23.4,22.8,00.0,32.3,25.2,15.2,0000.0,0011.01,0003.18,0001.58
2021-12-09 17:05:00,,0816.6,4.99,0.00,23.4,22.8,00.0,32.3,25.2,15.1,0000.0,0011.01,0003.24,0001.59
2021-12-09 17:06:00,,0816.6,5.01,0.00,23.4,22.8,00.0,32.3,25.2,15.2,0000.0,0010.98,0003.24,0001.60
2021-12-09 17:07:00,,0816.7,5.01,0.00,23.4,22.8,00.0,32.3,25.1,15.2,0000.0,0011.10,0003.24,0001.61
2021-12-09 17:08:00,,0816.6,5.00,0.00,23.4,22.8,00.0,32.3,25.1,15.1,0000.0,0011.97,0003.24,0001.62
2021-12-09 17:09:00,,0816.5,4.99,0.00,23.4,22.8,00.0,32.4,25.2,15.1,0000.0,0011.77,0003.22,0001.63
2021-12-09 17:10:00,,0816.5,5.00,0.00,23.4,22.8,00.0,32.4,25.1,15.1,0000.0,0011.55,0003.18,0001.64
2021-12-09 17:11:00,,0816.5,5.01,0.00,23.4,22.8,00.0,32.4,25.2,15.2,0000.0,0010.72,0003.11,0001.64
2021-12-09 17:12:00,,0816.5,5.00,0.00,23.4,22.8,00.0,32.4,25.2,15.1,0000.0,0010.38,0003.05,0001.64
2021-12-09 17:13:00,,0816.5,5.00,0.00,23.4,22.8,00.0,32.4,25.2,15.1,0000.0,0010.24,0002.97,0001.64
2021-12-09 17:14:00,,0816.6,5.00,0.00,23.5,22.8,00.0,32.4,25.2,14.9,0000.0,0010.50,0003.03,0001.65
2021-12-09 17:15:00,,0816.5,4.99,0.00,23.5,22.8,00.0,32.4,25.3,14.9,0000.0,0010.64,0003.01,0001.65
2021-12-09 17:16:00,,0816.5,5.00,0.00,23.5,22.9,00.0,32.4,25.3,15.0,0000.0,0009.85,0002.89,0001.65
2021-12-09 17:17:00,,0816.5,5.00,0.00,23.5,22.9,00.0,32.4,25.3,15.0,0000.0,0009.50,0002.85,0001.65
2021-12-09 17:18:00,,0816.4,5.00,0.00,23.5,22.9,00.0,32.4,25.2,15.1,0000.0,0009.84,0002.77,0001.66
2021-12-09 17:19:00,,0816.5,4.99,0.00,23.5,22.9,00.0,32.4,25.3,15.0,0000.0,0008.91,0002.69,0001.67
2021-12-09 17:20:00,,0816.5,4.99,0.00,23.5,22.9,00.0,32.4,25.3,14.9,0000.0,0009.63,0002.71,0001.65
2021-12-09 17:21:00,,0816.4,5.00,0.00,23.5,22.9,00.0,32.4,25.3,14.9,0000.0,0010.15,0002.69,0001.64
2021-12-09 17:22:00,,0816.4,5.00,0.00,23.6,23.0,00.0,32.5,25.3,14.9,0000.0,0010.60,0002.78,0001.64
2021-12-09 17:23:00,,0816.4,5.00,0.00,23.6,23.0,00.0,32.5,25.4,14.9,0000.0,0011.07,0002.75,0001.64
2021-12-09 17:24:00,,0816.4,5.00,0.00,23.6,23.0,00.0,32.5,25.4,14.9,0000.0,0011.14,0002.77,0001.62
2021-12-09 17:25:00,,0816.4,5.01,0.00,23.6,23.0,00.0,32.5,25.5,14.9,0000.0,0011.28,0002.74,0001.61
2021-12-09 17:26:00,,0816.4,5.01,0.00,23.6,23.0,00.0,32.5,25.5,14.9,0000.0,0011.21,0002.71,0001.60
2021-12-09 17:27:00,,0816.4,5.00,0.00,23.7,23.1,00.0,32.5,25.5,15.0,0000.0,0011.06,0002.71,0001.60
2021-12-09 17:28:00,,0816.4,4.99,0.00,23.7,23.1,00.0,32.5,25.5,14.9,0000.0,0010.76,0002.66,0001.58
2021-12-09 17:29:00,,0816.4,5.00,0.00,23.7,23.1,00.0,32.6,25.5,14.9,0000.0,0010.81,0002.68,0001.56
2021-12-09 17:30:00,,0816.4,5.00,0.00,23.7,23.2,00.0,32.6,25.6,14.8,0000.0,0010.80,0002.70,0001.55
2021-12-09 17:31:00,,0816.3,5.00,0.00,23.8,23.2,00.0,32.6,25.6,14.8,0000.0,0011.20,0002.64,0001.55
2021-12-09 17:32:00,,0816.3,5.00,0.00,23.8,23.2,00.0,32.6,25.6,14.8,0000.0,0010.72,0002.67,0001.56
2021-12-09 17:33:00,,0816.3,4.99,0.00,23.8,23.3,00.0,32.6,25.6,14.8,0000.0,0010.49,0002.67,0001.57
2021-12-09 17:34:00,,0816.2,5.00,0.00,23.9,23.3,00.0,32.7,25.7,14.7,0000.0,0010.24,0002.74,0001.58
2021-12-09 17:35:00,,0816.1,5.01,0.00,23.9,23.4,00.0,32.7,25.7,14.6,0000.0,0010.87,0002.80,0001.61
2021-12-09 17:36:00,,0816.1,4.99,0.00,23.9,23.4,00.0,32.7,25.7,14.6,0000.0,0010.58,0002.74,0001.62
2021-12-09 17:37:00,,0816.1,5.00,0.00,24.0,23.4,00.0,32.7,25.8,14.5,0000.0,0010.17,0002.74,0001.64
2021-12-09 17:38:00,,0816.1,5.00,0.00,24.0,23.4,00.0,32.8,25.9,14.5,0000.0,0010.26,0002.78,0001.65
2021-12-09 17:39:00,,0816.1,5.01,0.00,24.0,23.4,00.0,32.8,25.9,14.5,0000.0,0010.83,0002.83,0001.67
2021-12-09 17:40:00,,0816.2,5.00,0.00,24.1,23.5,00.0,32.8,25.9,14.4,0000.0,0010.05,0002.81,0001.69
2021-12-09 17:41:00,,0816.1,5.00,0.00,24.1,23.5,00.0,32.9,26.0,14.3,0000.0,0010.44,0002.81,0001.69
2021-12-09 17:42:00,,0816.1,5.01,0.00,24.1,23.5,00.0,32.9,26.0,14.2,0000.0,0010.36,0002.85,0001.68
2021-12-09 17:43:00,,0816.1,4.99,0.00,24.1,23.6,00.0,32.9,26.0,14.2,0000.0,0010.32,0002.90,0001.68
2021-12-09 17:44:00,,0816.1,5.01,0.00,24.2,23.6,00.0,33.0,26.0,14.2,0000.0,0010.24,0002.86,0001.68
2021-12-09 17:45:00,,0816.2,5.01,0.00,24.2,23.6,00.0,33.0,26.1,14.2,0000.0,0010.07,0002.86,0001.67
2021-12-09 17:46:00,,0816.2,4.99,0.00,24.2,23.7,00.0,33.0,26.1,14.1,0000.0,0009.41,0002.84,0001.65
2021-12-09 17:47:00,,0816.1,5.01,0.00,24.3,23.7,00.0,33.0,26.2,14.2,0000.0,0009.89,0002.87,0001.64
2021-12-09 17:48:00,,0816.1,4.99,0.00,24.3,23.7,00.0,33.1,26.2,14.1,0000.0,0010.26,0002.87,0001.63
2021-12-09 17:49:00,,0816.1,5.01,0.00,24.3,23.7,00.0,33.1,26.3,14.0,0000.0,0010.70,0002.87,0001.63
2021-12-09 17:50:00,,0816.1,4.99,0.00,24.4,23.8,00.0,33.1,26.3,14.1,0000.0,0011.09,0002.95,0001.62
2021-12-09 17:51:00,,0816.1,5.00,0.00,24.4,23.8,00.0,33.2,26.3,14.0,0000.0,0011.52,0002.99,0001.63
2021-12-09 17:52:00,,0816.0,5.00,0.00,24.4,23.8,00.0,33.2,26.3,14.1,0000.0,0011.48,0002.98,0001.62
2021-12-09 17:53:00,,0816.1,5.00,0.00,24.4,23.8,00.0,33.2,26.3,14.0,0000.0,0010.74,0002.97,0001.61
2021-12-09 17:54:00,,0816.1,5.00,0.00,24.4,23.9,00.0,33.2,26.3,14.0,0000.0,0010.87,0002.94,0001.59
2021-12-09 17:55:00,,0816.1,5.00,0.00,24.5,23.9,00.0,33.3,26.4,13.9,0000.0,0012.07,0003.00,0001.56
2021-12-09 17:56:00,,0816.1,4.99,0.00,24.5,23.9,00.0,33.3,26.4,14.0,0000.0,0012.78,0002.95,0001.55
2021-12-09 17:57:00,,0816.0,5.02,0.00,24.5,23.9,00.0,33.3,26.4,14.0,0000.0,0012.66,0002.93,0001.54
2021-12-09 17:58:00,,0816.0,5.00,0.00,24.5,23.9,00.0,33.3,26.4,14.0,0000.0,0013.19,0002.94,0001.52
2021-12-09 17:59:00,,0816.0,4.99,0.00,24.6,23.9,00.0,33.3,26.5,14.0,0000.0,0013.03,0002.95,0001.51
